Printer-friendly version

IAU Minor Planet Center

Minor Planet Center

MPEC 2006-O07 : 2006 OZ

The following Minor Planet Electronic Circular may be linked-to from your own Web pages, but must not otherwise be redistributed electronically.


Read MPEC 2006-O06 Read MPEC 2006-O08


M.P.E.C. 2006-O07                                Issued 2006 July 20, 16:36 UT

     The Minor Planet Electronic Circulars contain information on unusual
         minor planets and routine data on comets.  They are published
   on behalf of Commission 20 of the International Astronomical Union by the
          Minor Planet Center, Smithsonian Astrophysical Observatory,
                          Cambridge, MA 02138, U.S.A.

                  Supported in part by the Brinson Foundation
                  Supported in part by the TABASGO Foundation
             Prepared using the Tamkin Foundation Computer Network

                              MPC@CFA.HARVARD.EDU
          URL http://cfa-www.harvard.edu/iau/mpc.html  ISSN 1523-6714

                                    2006 OZ

Observations:
     K06O00Z* C2006 07 18.54390 21 35 26.62 -32 48 03.5          18.0 V EO007E12
     K06O00Z  C2006 07 18.55431 21 35 27.27 -32 48 11.0          17.9 V EO007E12
     K06O00Z  C2006 07 18.56469 21 35 27.92 -32 48 18.3          17.9 V EO007E12
     K06O00Z  C2006 07 18.57508 21 35 28.53 -32 48 25.7          18.0 V EO007E12
     K06O00Z  C2006 07 18.59831 21 35 29.94 -32 48 41.9          17.9 V EO007E12
     K06O00Z  C2006 07 18.61031 21 35 30.66 -32 48 50.6          18.0 V EO007E12
     K06O00Z  C2006 07 18.62264 21 35 31.38 -32 48 59.5          18.0 V EO007E12
     K06O00Z  C2006 07 18.67973 21 35 34.76 -32 49 37.4          18.1 V EO007E12
     K06O00Z  C2006 07 18.69510 21 35 35.66 -32 49 47.8          18.2 V EO007E12
     K06O00Z  C2006 07 18.71034 21 35 36.56 -32 49 57.8          18.4 V EO007E12
     K06O00Z  C2006 07 18.72531 21 35 37.46 -32 50 07.7          18.5 V EO007E12
     K06O00Z  C2006 07 19.19637 21 36 10.37 -32 55 31.1          18.5 R EO007I77
     K06O00Z  C2006 07 19.20166 21 36 10.63 -32 55 34.5          17.8 R EO007I77
     K06O00Z  C2006 07 19.20909 21 36 11.01 -32 55 38.6          18.5 R EO007I77
     K06O00Z  C2006 07 19.31790 21 36 18.79 -32 57 09.7          18.2 R EO007734
     K06O00Z  C2006 07 19.32229 21 36 19.06 -32 57 12.3          18.0 R EO007734
     K06O00Z  C2006 07 19.32667 21 36 19.30 -32 57 15.4          18.0 R EO007734
     K06O00Z  C2006 07 19.33106 21 36 19.58 -32 57 18.2          18.2 R EO007734
     K06O00Z  C2006 07 19.68242 21 36 43.23 -33 00 56.8          19.1 V EO007E12
     K06O00Z  C2006 07 19.68605 21 36 43.41 -33 00 58.8          18.4 V EO007E12
     K06O00Z  C2006 07 19.68965 21 36 43.59 -33 01 00.8          18.4 V EO007E12
     K06O00Z  C2006 07 19.69323 21 36 43.88 -33 01 04.0          18.2 V EO007E12
     K06O00Z  C2006 07 19.69677 21 36 44.06 -33 01 06.0          18.6 V EO007E12
     K06O00Z  C2006 07 20.19746 21 37 18.39 -33 06 52.1          17.8 R EO007I77
     K06O00Z  C2006 07 20.20258 21 37 18.68 -33 06 55.2          17.8 R EO007I77
     K06O00Z  C2006 07 20.20977 21 37 19.11 -33 06 59.7          17.9 R EO007I77
     K06O00Z  C2006 07 20.28530 21 37 25.03 -33 08 06.9          18.3 R EO007734
     K06O00Z  C2006 07 20.29189 21 37 25.32 -33 08 12.1          18.3 R EO007734
     K06O00Z  C2006 07 20.29482 21 37 25.41 -33 08 14.8          18.0 R EO007734
     K06O00Z  C2006 07 20.64743 21 37 48.97 -33 11 54.3          17.7 V EO007E12
     K06O00Z  C2006 07 20.65061 21 37 49.11 -33 11 56.1          17.6 V EO007E12
     K06O00Z  C2006 07 20.65377 21 37 49.36 -33 11 58.8          17.7 V EO007E12
     K06O00Z  C2006 07 20.65674 21 37 49.54 -33 12 00.6          17.7 V EO007E12
     K06O00Z  C2006 07 20.65970 21 37 49.72 -33 12 02.6          18.0 V EO007E12

Observer details:
734 Farpoint Observatory.  Observers D. Tibbets, G. Hug.  0.7-m reflector
    + CCD.
E12 Siding Spring Survey.  Observer G. J. Garradd.  Measurers E. C. Beshore,
    E. J. Christensen, G. J. Garradd, A. R. Gibbs, A. D. Grauer, R. E. Hill,
    R. A. Kowalski, S. M. Larson, R. H. McNaught.  0.5-m Uppsala Schmidt + CCD.
I77 CEAMIG-REA Observatory, Belo Horizonte.  Observers C. Jacques, E. Pimentel.
    Measurer C. Jacques.  0.30-m f/3.0 Schmidt-Cassegrain + CCD.

Orbital elements:
2006 OZ                                                  Earth MOID = 0.1830 AU
Epoch 2006 July 4.0 TT = JDT 2453920.5                  MPC
M 334.08790              (2000.0)            P               Q
n   0.30790763     Peri.  318.70646     +0.99827275     +0.01740971
a   2.1719796      Node    40.40076     +0.01016094     +0.88952601
e   0.4587387      Incl.    4.96650     -0.05786419     +0.45655271
P   3.20           H   18.7           G   0.15
From 33 observations 2006 July 18-20.

Ephemeris:
2006 OZ                  a,e,i = 2.17, 0.46, 5                   q = 1.1756
Date    TT    R. A. (2000) Decl.     Delta      r     Elong.  Phase     V
2006 07 14    21 30.13   -31 58.3    0.423    1.404   151.9    19.9    18.6
2006 07 24    21 41.55   -33 50.4    0.361    1.353   155.9    17.9    18.1
2006 08 03    21 52.39   -35 42.3    0.310    1.306   157.4    17.3    17.7
2006 08 13    22 03.50   -37 10.7    0.270    1.265   156.4    18.7    17.3
2006 08 23    22 15.77   -37 46.0    0.239    1.231   153.8    21.3    17.1
2006 09 02    22 30.27   -36 53.6    0.217    1.204   151.0    24.0    16.9
2006 09 12    22 47.65   -34 05.4    0.203    1.185   149.3    25.7    16.8
2006 09 22    23 07.25   -29 11.6    0.196    1.176   149.1    26.0    16.7
2006 10 02    23 28.06   -22 29.4    0.199    1.177   149.8    25.3    16.7
2006 10 12    23 48.95   -14 50.4    0.213    1.188   150.5    24.5    16.8
2006 10 22    00 09.04   -07 19.1    0.239    1.208   149.9    24.4    17.1
2006 11 01    00 28.35   -00 40.6    0.277    1.236   147.7    25.4    17.5
2006 11 11    00 47.07   +04 47.7    0.329    1.272   144.3    27.0    18.0
2006 11 21    01 05.45   +09 09.4    0.393    1.314   140.1    28.8    18.5
2006 12 01    01 23.86   +12 37.7    0.470    1.361   135.4    30.6    19.0
2006 12 11    01 42.48   +15 25.7    0.559    1.413   130.5    32.0    19.5
2006 12 21    02 01.38   +17 43.8    0.660    1.468   125.4    33.1    20.0
2006 12 31    02 20.68   +19 40.0    0.772    1.525   120.2    33.9    20.5
2007 01 10    02 40.35   +21 19.4    0.894    1.583   114.9    34.3    20.9
2007 01 20    03 00.36   +22 44.9    1.026    1.643   109.6    34.3    21.3
2007 01 30    03 20.72   +23 58.7    1.167    1.703   104.3    34.1    21.6
2007 02 09    03 41.33   +25 01.6    1.315    1.764    99.0    33.5    21.9

Gareth V. Williams           (C) Copyright 2006 MPC           M.P.E.C. 2006-O07

Read MPEC 2006-O06 Read MPEC 2006-O08


Our Web policy. Index to the CBAT/MPC/ICQ pages.


Valid HTML 4.01!